Weather in Chattanooga

United States     35°02′44″N   85°18′33″W
temp.,
°C
wind,
m/s
gust,
m/s
humid.,
%
clouds,
%
prec.,
mm/h
press.,
hPa
HPBL,
m
26 may, thu
thu2623:00+18sse41595100 0.8 1017750
02:00+18sse21198100 1.7 1017608
05:00+18sse41398100 2.7 1016682
08:00+18sse41298100 3.5 1016792
11:00+19sse51297100 2.1 10161015
14:00+19s41198100 23.1 1014961
17:00+17ssw51597100 14.1 1012748
20:00+16ssw31096100 14.8 1012629
27 may, fri
fri2723:00+15se259984 0.1 1014187
02:00+15sse279965 0.8 1012254
05:00+14s279929 0.8 1011205
08:00+15ssw269886 1.9 1012288
11:00+21sw596233 0.1 10121522
14:00+23wsw694799 0.1 10112100
17:00+20w486857 0.7 10111310
20:00+19wnw48740 1.1 1012683
28 may, sat
sat2823:00+14wnw11950 0.0 101312
02:00+13wsw119786 0.0 101311
05:00+13wnw11970 0.0 101311
08:00+15nnw129116 0.0 1015145
11:00+21n236399 0.0 10151256
14:00+24e235327 0.0 10141463
17:00+27ese13453 0.0 10121779
20:00+22ene137758 0.0 101367
29 may, sun
sun2923:00+17nw00910 0.0 101411
02:00+15ene01930 0.0 101511
05:00+14ne11952 0.0 101511
08:00+16e118844 0.0 101779
11:00+24sse24597 0.0 1017726
14:00+29s34425 0.0 10161899
17:00+30sse343910 0.0 10152087
20:00+25se116815 0.0 101511
30 may, mon
mon3023:00+20ese11795 0.0 101811
02:00+18ese00844 0.0 101811
05:00+17ssw01900 0.0 101911
08:00+19e11800 0.0 102179
11:00+26sse24600 0.0 1021815
14:00+31sse34430 0.0 10202310
17:00+32ese34353 0.0 10182538
20:00+27ene11613 0.0 101811